Location: Falconara Alta
(43.6167°N, 13.4000°E)
Time: 03:46:54
(UTC+00:00)

ERS-1 Rocket - Pass Details

Date: 09 April 2020
Orbit: 754 x 757 km, 98.5° (Epoch: 02 June)

Event Time Altitude Azimuth Distance (km) Brightness Sun altitude
Exits shadow 20:47:02 63° 335° (NNW) 842 3.3 -29.3°
Drops below altitude 10° 20:51:16 10° 345° (NNW) 2,290 6.2 -29.8°
Sets 20:53:34 0° 346° (NNW) 3,219 7.2 -30.1°
